Stations météo

réclame
Mon MeteoGroup
Meaulte, France (7059): Température de l'air & dewpoint: 14.07.2018 09:00:00 - 20.07.2018 09:00:00 (CEST)Meaulte, France (7059): Vitesse du vent & gusts: 14.07.2018 09:00:00 - 20.07.2018 09:00:00 (CEST)Meaulte, France (7059): Direction du vent: 14.07.2018 09:00:00 - 20.07.2018 09:00:00 (CEST)Meaulte, France (7059): reduced air pressure: 14.07.2018 09:00:00 - 20.07.2018 09:00:00 (CEST)Meaulte, France (7059): visibility: 14.07.2018 09:00:00 - 20.07.2018 09:00:00 (CEST)Meaulte, France (7059): Quantités de précipitations: 14.07.2018 09:00:00 - 20.07.2018 09:00:00 (CEST)
Date & Time tt [°C] td [°C] ff [km/h] ff [knt] fx [km/h] fx [knt] dd ppp [hPa] vv [km] rr [mm]
20.07.2018 09:00:00 - - - - - - - - - -
20.07.2018 08:00:00 17,4 11,7 14 7 20 11 NE 1014,8 23 0,0
20.07.2018 07:00:00 16,6 12,3 11 6 14 8 N 1015,1 18 0,0
20.07.2018 06:00:00 16,9 12,4 7 4 11 6 NNE 1015,6 23 0,0
20.07.2018 05:00:00 17,7 11,5 6 4 11 6 N 1015,7 25 0,0
20.07.2018 04:00:00 18,3 11,4 3 2 18 10 NNW 1015,9 26 0,0
20.07.2018 03:00:00 18,6 11,2 13 7 21 11 ENE 1015,6 24 0,0
20.07.2018 02:00:00 19,2 11,5 12 6 32 17 ENE 1016,1 23 0,0
20.07.2018 01:00:00 19,8 11,6 19 11 28 15 NE 1016,1 22 0,0
20.07.2018 00:00:00 21,0 11,3 17 9 27 15 NE 1016,6 20 0,0
19.07.2018 23:00:00 20,6 11,2 17 9 23 13 ENE 1016,4 21 0,0
19.07.2018 22:00:00 20,7 10,8 13 7 22 12 NE 1016,4 22 0,0
19.07.2018 21:00:00 24,3 10,9 16 9 24 13 NE 1016,2 23 0,0
19.07.2018 20:00:00 24,9 10,7 17 9 29 16 NE 1016,1 26 0,0
19.07.2018 19:00:00 27,1 10,7 20 11 31 17 NE 1015,9 24 0,0
19.07.2018 18:00:00 27,7 10,8 9 5 27 14 N 1016,4 20 0,0
19.07.2018 17:00:00 26,7 10,4 10 5 29 15 N 1016,8 18 0,0
19.07.2018 16:00:00 27,2 10,8 16 9 29 16 NNE 1017,1 21 0,0
19.07.2018 15:00:00 26,3 11,6 14 7 24 13 N 1017,4 20 0,0
19.07.2018 14:00:00 26,8 12,4 11 6 26 14 NE 1017,7 30 0,0
19.07.2018 13:00:00 26,3 12,0 7 4 19 11 E 1018,1 19 0,0
19.07.2018 12:00:00 25,3 11,8 4 2 - - WSW 1018,4 15 0,0
19.07.2018 11:00:00 23,6 14,3 2 1 - - S 1018,5 10 0,0
19.07.2018 10:00:00 21,8 13,9 - - - - - 1018,7 10 0,0
19.07.2018 09:00:00 19,5 13,7 - - - - - 1018,8 10 0,0
19.07.2018 08:00:00 16,8 12,5 - - - - - 1018,9 9 0,0
19.07.2018 07:00:00 14,9 12,0 - - - - - 1018,8 9 0,0
19.07.2018 06:00:00 13,9 11,4 - - - - - 1018,9 14 0,0
19.07.2018 05:00:00 14,2 11,5 - - - - - 1018,8 17 0,0
19.07.2018 04:00:00 14,3 11,3 - - - - - 1019,0 20 0,0
19.07.2018 03:00:00 14,5 11,1 - - - - - 1019,3 22 0,0
19.07.2018 02:00:00 15,3 11,3 - - - - - 1019,2 19 0,0
19.07.2018 01:00:00 15,1 10,9 - - - - - 1019,2 19 0,0
19.07.2018 00:00:00 17,9 11,2 - - - - - 1018,8 21 0,0
18.07.2018 23:00:00 17,4 10,0 - - - - - 1018,4 16 0,0
18.07.2018 22:00:00 18,5 10,3 - - - - - 1018,1 11 0,0
18.07.2018 21:00:00 22,3 10,4 - - - - - 1017,7 14 0,0
18.07.2018 20:00:00 24,8 10,6 - - - - - 1017,5 16 0,0
18.07.2018 19:00:00 25,5 10,5 - - - - - 1017,4 15 0,0
18.07.2018 18:00:00 24,1 10,0 - - - - - 1017,6 26 0,0
18.07.2018 17:00:00 25,5 10,1 - - - - - 1017,8 33 0,0
18.07.2018 16:00:00 26,5 10,6 - - - - - 1017,8 24 0,0
18.07.2018 15:00:00 25,0 11,2 - - - - - 1018,3 28 0,0
18.07.2018 14:00:00 24,3 10,9 - - - - - 1018,5 28 0,0
18.07.2018 13:00:00 24,2 11,5 - - - - - 1018,6 34 0,0
18.07.2018 12:00:00 23,3 10,7 - - - - - 1019,0 19 0,0
18.07.2018 11:00:00 21,9 11,3 - - - - - 1019,2 33 0,0
18.07.2018 10:00:00 20,1 11,3 - - - - - 1019,6 32 0,0
18.07.2018 09:00:00 17,7 12,4 - - - - - 1019,5 29 0,0
18.07.2018 08:00:00 14,7 13,1 - - - - - 1019,7 13 0,0
18.07.2018 07:00:00 12,8 11,4 - - - - - 1019,5 20 0,0
18.07.2018 06:00:00 12,2 11,1 - - - - - 1019,2 23 0,0
18.07.2018 05:00:00 12,5 10,4 - - - - - 1019,3 32 0,0
18.07.2018 04:00:00 13,3 11,2 - - - - - 1019,2 29 0,0
18.07.2018 03:00:00 14,1 11,4 - - - - - 1019,4 34 0,0
18.07.2018 02:00:00 13,7 10,9 - - - - - 1019,4 33 0,0
18.07.2018 01:00:00 14,4 9,6 - - - - - 1019,3 29 0,0
18.07.2018 00:00:00 14,9 9,5 - - - - - 1019,0 29 0,0
17.07.2018 23:00:00 15,7 9,4 - - - - - 1018,9 34 0,0
17.07.2018 22:00:00 17,5 8,9 - - - - - 1018,4 42 0,0
17.07.2018 21:00:00 20,3 8,0 - - - - - 1018,0 30 0,0
17.07.2018 20:00:00 21,9 9,4 - - - - - 1017,6 22 0,0
17.07.2018 19:00:00 23,0 10,4 - - - - - 1017,4 19 0,0
17.07.2018 18:00:00 23,3 10,0 - - - - - 1017,4 19 0,0
17.07.2018 17:00:00 22,7 10,2 - - - - - 1017,4 16 0,0
17.07.2018 16:00:00 23,6 11,0 - - - - - 1017,5 14 0,0
17.07.2018 15:00:00 23,8 10,5 - - - - - 1017,6 13 0,0
17.07.2018 14:00:00 23,0 11,1 - - - - - 1017,8 13 0,0
17.07.2018 13:00:00 22,8 11,5 - - - - - 1017,6 15 0,0
17.07.2018 12:00:00 22,0 11,4 - - - - - 1017,4 16 0,0
17.07.2018 11:00:00 21,3 13,0 - - - - - 1017,2 17 0,0
17.07.2018 10:00:00 20,1 14,5 - - - - - 1016,9 17 0,0
17.07.2018 09:00:00 18,4 15,3 - - - - - 1016,6 14 0,0
17.07.2018 08:00:00 17,1 15,6 - - - - - 1016,4 10 0,0
17.07.2018 07:00:00 16,3 15,0 - - - - - 1016,0 10 0,0
17.07.2018 06:00:00 15,7 14,6 - - - - - 1015,6 7 0,0
17.07.2018 05:00:00 15,3 13,5 - - - - - 1015,3 11 0,0
17.07.2018 04:00:00 16,0 13,1 - - - - - 1015,3 17 0,0
17.07.2018 03:00:00 15,5 12,8 - - - - - 1015,4 20 0,0
17.07.2018 02:00:00 17,3 12,4 - - - - - 1015,4 38 0,0
17.07.2018 01:00:00 17,4 11,9 - - - - - 1015,3 45 0,0
17.07.2018 00:00:00 17,8 11,4 - - - - - 1015,1 48 0,0
16.07.2018 23:00:00 18,3 11,4 - - - - - 1014,9 46 0,0
16.07.2018 22:00:00 21,7 12,3 - - - - - 1014,3 44 0,0
16.07.2018 21:00:00 23,0 11,4 - - - - - 1013,6 28 0,0
16.07.2018 20:00:00 24,9 11,5 - - - - - 1012,7 30 0,0
16.07.2018 19:00:00 26,9 13,6 - - - - - 1012,0 39 0,0
16.07.2018 18:00:00 28,7 12,6 - - - - - 1012,0 20 0,0
16.07.2018 17:00:00 28,9 10,5 - - - - - 1012,0 29 0,0
16.07.2018 16:00:00 28,9 11,0 - - - - - 1012,2 19 0,0
16.07.2018 15:00:00 28,2 12,1 - - - - - 1012,5 26 0,0
16.07.2018 14:00:00 27,4 14,1 - - - - - 1012,9 27 0,0
16.07.2018 13:00:00 25,1 15,7 - - - - - 1013,3 20 0,0
16.07.2018 12:00:00 25,8 14,0 - - - - - 1013,4 20 0,0
16.07.2018 11:00:00 25,4 14,5 - - - - - 1013,1 19 0,0
16.07.2018 10:00:00 23,6 12,9 - - - - - 1013,2 12 0,0
16.07.2018 09:00:00 19,9 14,3 - - - - - 1013,4 18 0,0
16.07.2018 08:00:00 16,9 13,8 - - - - - 1013,7 12 0,0
16.07.2018 07:00:00 14,2 12,8 - - - - - 1013,7 4,7 0,0
16.07.2018 06:00:00 13,9 12,1 - - - - - 1014,0 7 0,0
16.07.2018 05:00:00 14,9 12,2 - - - - - 1013,9 16 0,0
16.07.2018 04:00:00 15,9 11,5 - - - - - 1014,0 35 0,0
16.07.2018 03:00:00 16,4 11,5 - - - - - 1014,2 36 0,0
16.07.2018 02:00:00 19,3 11,1 - - - - - 1014,4 52 0,0
16.07.2018 01:00:00 19,1 11,4 - - - - - 1014,5 51 0,0
16.07.2018 00:00:00 20,1 11,3 - - - - - 1014,7 52 0,0
15.07.2018 23:00:00 20,9 11,0 - - - - - 1014,5 48 0,0
15.07.2018 22:00:00 22,1 11,5 - - - - - 1014,2 41 0,0
15.07.2018 21:00:00 24,2 11,8 - - - - - 1013,8 41 0,0
15.07.2018 20:00:00 26,5 12,2 - - - - - 1013,3 35 0,0
15.07.2018 19:00:00 28,7 11,7 - - - - - 1013,0 22 0,0
15.07.2018 18:00:00 29,5 11,1 - - - - - 1013,2 23 0,0
15.07.2018 17:00:00 29,6 11,2 - - - - - 1013,7 53 0,0
15.07.2018 16:00:00 29,6 11,6 - - - - - 1014,1 60 0,0
15.07.2018 15:00:00 29,2 11,3 - - - - - 1014,6 20 0,0
15.07.2018 14:00:00 28,2 11,3 - - - - - 1015,1 20 0,0
15.07.2018 13:00:00 27,2 12,4 - - - - - 1015,6 19 0,0
15.07.2018 12:00:00 27,3 13,3 - - - - - 1016,1 17 0,0
15.07.2018 11:00:00 26,8 13,5 - - - - - 1016,1 20 0,0
15.07.2018 10:00:00 24,7 14,2 - - - - - 1016,4 54 0,0
15.07.2018 09:00:00 22,8 14,1 - - - - - 1016,6 60 0,0
15.07.2018 08:00:00 18,7 13,8 - - - - - 1016,6 19 0,0
15.07.2018 07:00:00 15,8 13,3 - - - - - 1016,6 15 0,0
15.07.2018 06:00:00 15,6 12,3 - - - - - 1016,8 18 0,0
15.07.2018 05:00:00 16,3 12,5 - - - - - 1016,9 17 0,0
15.07.2018 04:00:00 16,1 12,6 - - - - - 1017,2 19 0,0
15.07.2018 03:00:00 16,4 12,9 - - - - - 1017,4 20 0,0
15.07.2018 02:00:00 17,6 13,1 - - - - - 1017,7 30 0,0
15.07.2018 01:00:00 17,4 13,3 - - - - - 1017,9 29 0,0
15.07.2018 00:00:00 19,6 14,6 - - - - - 1017,7 29 0,0
14.07.2018 23:00:00 18,8 13,6 - - - - - 1017,6 37 0,0
14.07.2018 22:00:00 22,1 12,4 - - - - - 1017,2 49 0,0
14.07.2018 21:00:00 23,8 13,3 - - - - - 1016,9 37 0,0
14.07.2018 20:00:00 26,3 12,0 - - - - - 1016,9 20 0,0
14.07.2018 19:00:00 27,2 12,0 - - - - - 1017,1 60 0,0
14.07.2018 18:00:00 26,4 12,8 - - - - - 1017,4 57 0,0
14.07.2018 17:00:00 27,4 12,2 - - - - - 1017,6 19 0,0
14.07.2018 16:00:00 26,8 12,8 - - - - - 1018,1 36 0,0
14.07.2018 15:00:00 27,2 15,2 - - - - - 1018,5 20 0,0
14.07.2018 14:00:00 26,1 14,2 - - - - - 1019,0 20 0,0
14.07.2018 13:00:00 25,3 14,4 - - - - - 1019,4 20 0,0
14.07.2018 12:00:00 24,2 14,9 - - - - - 1019,9 19 0,0
14.07.2018 11:00:00 22,8 14,9 - - - - - 1020,3 14 0,0
14.07.2018 10:00:00 20,5 15,7 - - - - - 1020,6 7 0,0
14.07.2018 09:00:00 18,2 14,9 - - - - - 1020,7 6 0,0

tt = Température de l'air
td = dewpoint
ff = Vitesse du vent
fx = gusts
dd = Direction du vent
ppp = reduced air pressure
vv = visibility
rr = Quantités de précipitations

stations d'obs. à proximité